����,���ϕ���(m/s),���ϕ���,�ő�u�ԕ���(m/s),�ő啗��������,�C��(��),���x(%),10���Ԉړ��ώZ�J��(mm),1���Ԉړ��ώZ�J��(mm),���J��(mm),�݌v�J��(mm)
2022-06-13T00:00:00+09:00,1.7,���k��,4,�k��,16.7,71.3,0,0,0,0
2022-06-13T00:01:00+09:00,1.5,���k��,3.8,���k��,16.7,71.3,0,0,0,0
2022-06-13T00:02:00+09:00,1.5,���k��,3.8,���k��,16.6,71.4,0,0,0,0
2022-06-13T00:03:00+09:00,1.3,���k��,2.8,�k��,16.6,71.7,0,0,0,0
2022-06-13T00:04:00+09:00,1.2,���k��,2.8,�k��,16.5,72,0,0,0,0
2022-06-13T00:05:00+09:00,1.1,���k��,2.8,�k��,16.5,72.2,0,0,0,0
2022-06-13T00:06:00+09:00,1.1,��,2.8,�k��,16.5,72.4,0,0,0,0
2022-06-13T00:07:00+09:00,0.9,��,2,���k��,16.5,72.7,0,0,0,0
2022-06-13T00:08:00+09:00,0.8,��,1.7,���쓌,16.5,73.2,0,0,0,0
2022-06-13T00:09:00+09:00,0.7,���쓌,1.7,���쓌,16.5,73.4,0,0,0,0
2022-06-13T00:10:00+09:00,0.7,���쓌,1.7,���쓌,16.4,73.4,0,0,0,0
2022-06-13T00:11:00+09:00,0.7,�쓌,1.7,���쓌,16.3,73.4,0,0,0,0
2022-06-13T00:12:00+09:00,0.8,��쓌,1.7,���쓌,16.2,73.7,0,0,0,0
2022-06-13T00:13:00+09:00,0.8,��쓌,1.7,���쓌,16.5,75.2,0,0,0,0
2022-06-13T00:14:00+09:00,0.7,��쓌,1.4,��쐼,16.8,75.5,0,0,0,0
2022-06-13T00:15:00+09:00,0.6,��쓌,1.5,���쓌,16.6,73.5,0,0,0,0
2022-06-13T00:16:00+09:00,0.6,��쓌,1.5,���쓌,16.4,73.4,0,0,0,0
2022-06-13T00:17:00+09:00,0.6,��쓌,1.7,���쓌,16.3,73.9,0,0,0,0
2022-06-13T00:18:00+09:00,0.7,��쓌,1.7,���쓌,16.3,74,0,0,0,0
2022-06-13T00:19:00+09:00,0.8,�쓌,2.2,���쓌,16.3,73.9,0,0,0,0
2022-06-13T00:20:00+09:00,0.9,�쓌,2.2,���쓌,16.4,73.7,0,0,0,0
2022-06-13T00:21:00+09:00,0.9,���쓌,2.3,��,16.4,73.4,0,0,0,0
2022-06-13T00:22:00+09:00,1.1,���쓌,2.9,��,16.3,73.2,0,0,0,0
2022-06-13T00:23:00+09:00,1.2,��,2.9,��,16.3,73.3,0,0,0,0
2022-06-13T00:24:00+09:00,1.4,��,2.9,��,16.3,73.3,0,0,0,0
2022-06-13T00:25:00+09:00,1.5,��,3.1,���쓌,16.3,73.3,0,0,0,0
2022-06-13T00:26:00+09:00,1.7,��,3.1,���쓌,16.3,73.4,0,0,0,0
2022-06-13T00:27:00+09:00,1.8,��,3.1,���쓌,16.3,73.4,0,0,0,0
2022-06-13T00:28:00+09:00,1.9,��,3.5,���쓌,16.3,73.5,0,0,0,0
2022-06-13T00:29:00+09:00,2,��,3.5,���쓌,16.3,73.6,0,0,0,0
2022-06-13T00:30:00+09:00,2,��,3.5,���쓌,16.3,73.6,0,0,0,0
2022-06-13T00:31:00+09:00,2,��,3.5,���쓌,16.3,73.5,0,0,0,0
2022-06-13T00:32:00+09:00,2,��,3.5,���쓌,16.4,73.4,0,0,0,0
2022-06-13T00:33:00+09:00,2,��,3.5,���쓌,16.3,73.3,0,0,0,0
2022-06-13T00:34:00+09:00,1.9,��,3.5,���쓌,16.4,73.2,0,0,0,0
2022-06-13T00:35:00+09:00,1.8,��,3.5,���쓌,16.4,73.1,0,0,0,0
2022-06-13T00:36:00+09:00,1.7,��,3.5,���쓌,16.4,72.9,0,0,0,0
2022-06-13T00:37:00+09:00,1.7,��,3.5,���쓌,16.3,72.8,0,0,0,0
2022-06-13T00:38:00+09:00,1.6,��,2.9,���쓌,16.3,73,0,0,0,0
2022-06-13T00:39:00+09:00,1.5,��,2.7,���쓌,16.3,73.1,0,0,0,0
2022-06-13T00:40:00+09:00,1.5,��,2.7,���쓌,16.3,73.1,0,0,0,0
2022-06-13T00:41:00+09:00,1.5,��,2.7,��,16.3,73,0,0,0,0
2022-06-13T00:42:00+09:00,1.5,��,3.3,���k��,16.4,73,0,0,0,0
2022-06-13T00:43:00+09:00,1.5,��,3.3,���k��,16.4,72.8,0,0,0,0
2022-06-13T00:44:00+09:00,1.6,���k��,3.3,���k��,16.4,72.7,0,0,0,0
2022-06-13T00:45:00+09:00,1.6,���k��,3.3,���k��,16.3,72.6,0,0,0,0
2022-06-13T00:46:00+09:00,1.6,���k��,3.3,���k��,16.3,72.7,0,0,0,0
2022-06-13T00:47:00+09:00,1.7,���k��,3.3,���k��,16.3,73,0,0,0,0
2022-06-13T00:48:00+09:00,1.6,���k��,3.3,���k��,16.3,73.2,0,0,0,0
2022-06-13T00:49:00+09:00,1.7,��,3.3,���k��,16.3,73.3,0,0,0,0
2022-06-13T00:50:00+09:00,1.6,��,3.3,���k��,16.3,73.5,0,0,0,0
2022-06-13T00:51:00+09:00,1.6,��,3.3,���k��,16.2,73.7,0,0,0,0
2022-06-13T00:52:00+09:00,1.5,��,3.1,���k��,16.2,73.8,0,0,0,0
2022-06-13T00:53:00+09:00,1.3,��,2.8,���k��,16.2,74,0,0,0,0
2022-06-13T00:54:00+09:00,1.3,��,2.2,��,16.2,74.1,0,0,0,0
2022-06-13T00:55:00+09:00,1.3,��,2.3,���k��,16.1,74.3,0,0,0,0
2022-06-13T00:56:00+09:00,1.3,��,3,���k��,16.1,74.5,0,0,0,0
2022-06-13T00:57:00+09:00,1.3,��,3,���k��,16.1,74.6,0,0,0,0
2022-06-13T00:58:00+09:00,1.3,��,3,���k��,16.1,74.9,0,0,0,0
2022-06-13T00:59:00+09:00,1.3,��,3,���k��,16.1,75,0,0,0,0
2022-06-13T01:00:00+09:00,1.4,��,3,���k��,16,75.1,0,0,0,0
2022-06-13T01:01:00+09:00,1.5,��,3,���k��,16,75.1,0,0,0,0
2022-06-13T01:02:00+09:00,1.6,��,3,���k��,16,75.2,0,0,0,0
2022-06-13T01:03:00+09:00,1.6,��,3,���k��,16,75.3,0,0,0,0
2022-06-13T01:04:00+09:00,1.7,��,3,���k��,16,75.5,0,0,0,0
2022-06-13T01:05:00+09:00,1.8,��,3,���k��,15.9,75.8,0,0,0,0
2022-06-13T01:06:00+09:00,1.8,��,3.1,��,15.9,75.9,0,0,0,0
2022-06-13T01:07:00+09:00,1.9,��,3.1,��,15.9,76.1,0,0,0,0
2022-06-13T01:08:00+09:00,2,��,3.1,��,15.8,76.3,0,0,0,0
2022-06-13T01:09:00+09:00,2,��,3.1,��,15.8,76.6,0,0,0,0
2022-06-13T01:10:00+09:00,2,��,3.1,��,15.8,76.8,0,0,0,0
2022-06-13T01:11:00+09:00,2,��,3.1,��,15.8,77,0,0,0,0
2022-06-13T01:12:00+09:00,2,��,3.1,��,15.8,77.1,0,0,0,0
2022-06-13T01:13:00+09:00,2,��,3.1,��,15.7,77.1,0,0,0,0
2022-06-13T01:14:00+09:00,1.9,��,3.1,��,15.8,77.2,0,0,0,0
2022-06-13T01:15:00+09:00,1.8,��,3.1,��,15.8,77.3,0,0,0,0
2022-06-13T01:16:00+09:00,1.8,��,3,���k��,15.8,77.3,0,0,0,0
2022-06-13T01:17:00+09:00,1.7,��,3,���k��,15.9,77.2,0,0,0,0
2022-06-13T01:18:00+09:00,1.7,��,3,���k��,15.9,76.9,0,0,0,0
2022-06-13T01:19:00+09:00,1.7,��,3,���k��,15.9,76.6,0,0,0,0
2022-06-13T01:20:00+09:00,1.7,��,3,���k��,15.9,76.5,0,0,0,0
2022-06-13T01:21:00+09:00,1.8,��,4.4,���k��,15.9,76.4,0,0,0,0
2022-06-13T01:22:00+09:00,1.8,��,4.4,���k��,15.8,76.2,0,0,0,0
2022-06-13T01:23:00+09:00,1.9,��,4.4,���k��,15.8,76.4,0,0,0,0
2022-06-13T01:24:00+09:00,1.9,��,4.4,���k��,15.7,76.9,0,0,0,0
2022-06-13T01:25:00+09:00,2,��,4.4,���k��,15.7,77.4,0,0,0,0
2022-06-13T01:26:00+09:00,2,��,4.4,���k��,15.7,77.6,0,0,0,0
2022-06-13T01:27:00+09:00,2.1,��,4.4,���k��,15.8,77.7,0,0,0,0
2022-06-13T01:28:00+09:00,2.1,��,4.4,���k��,15.8,77.5,0,0,0,0
2022-06-13T01:29:00+09:00,2.1,��,4.4,���k��,15.8,77.4,0,0,0,0
2022-06-13T01:30:00+09:00,2.1,��,4.4,���k��,15.7,77.3,0,0,0,0
2022-06-13T01:31:00+09:00,2,��,3.6,��,15.7,77.4,0,0,0,0
2022-06-13T01:32:00+09:00,1.9,��,3.6,��,15.7,77.6,0,0,0,0
2022-06-13T01:33:00+09:00,1.8,��,3.6,��,15.7,77.6,0,0,0,0
2022-06-13T01:34:00+09:00,1.8,��,3.6,��,15.6,77.6,0,0,0,0
2022-06-13T01:35:00+09:00,1.7,��,3,��,15.6,77.8,0,0,0,0
2022-06-13T01:36:00+09:00,1.7,��,3,��,15.6,78,0,0,0,0
2022-06-13T01:37:00+09:00,1.8,��,3.4,���쓌,15.6,78.1,0,0,0,0
2022-06-13T01:38:00+09:00,1.8,��,3.4,���쓌,15.7,78,0,0,0,0
2022-06-13T01:39:00+09:00,1.9,��,4.1,���k��,15.7,77.9,0,0,0,0
2022-06-13T01:40:00+09:00,2,��,4.6,��,15.8,77.6,0,0,0,0
2022-06-13T01:41:00+09:00,2.2,��,4.6,��,15.8,77.4,0,0,0,0
2022-06-13T01:42:00+09:00,2.2,��,4.6,��,15.9,77.1,0,0,0,0
2022-06-13T01:43:00+09:00,2.3,��,4.6,��,15.9,76.7,0,0,0,0
2022-06-13T01:44:00+09:00,2.4,��,4.6,��,15.9,76.6,0,0,0,0
2022-06-13T01:45:00+09:00,2.5,��,4.6,��,15.9,76.4,0,0,0,0
2022-06-13T01:46:00+09:00,2.6,��,4.6,��,15.9,76.3,0,0,0,0
2022-06-13T01:47:00+09:00,2.5,��,4.6,��,16,75.9,0,0,0,0
2022-06-13T01:48:00+09:00,2.4,��,4.6,��,16,75.7,0,0,0,0
2022-06-13T01:49:00+09:00,2.4,��,4.6,��,16,75.8,0,0,0,0
2022-06-13T01:50:00+09:00,2.4,��,4.4,���k��,16,75.7,0,0,0,0
2022-06-13T01:51:00+09:00,2.3,��,4.3,���k��,16,75.4,0,0,0,0
2022-06-13T01:52:00+09:00,2.2,��,4.3,���k��,16,75.5,0,0,0,0
2022-06-13T01:53:00+09:00,2.1,��,4.3,���k��,16,75.5,0,0,0,0
2022-06-13T01:54:00+09:00,2.1,��,4.3,���k��,16,75.6,0,0,0,0
2022-06-13T01:55:00+09:00,2.1,��,4.3,���k��,16,75.5,0,0,0,0
2022-06-13T01:56:00+09:00,1.9,��,3.6,��,16,75.5,0,0,0,0
2022-06-13T01:57:00+09:00,1.9,��,3.6,��,16,75.5,0,0,0,0
2022-06-13T01:58:00+09:00,1.9,��,3.6,��,16,75.6,0,0,0,0
2022-06-13T01:59:00+09:00,1.8,��,3.6,��,16,75.6,0,0,0,0
2022-06-13T02:00:00+09:00,1.7,��,3.6,��,16,75.6,0,0,0,0
2022-06-13T02:01:00+09:00,1.7,��,3.1,��,15.9,75.7,0,0,0,0
2022-06-13T02:02:00+09:00,1.7,��,3.1,��,15.9,75.9,0,0,0,0
2022-06-13T02:03:00+09:00,1.7,��,3.1,��,15.9,76.1,0,0,0,0
2022-06-13T02:04:00+09:00,1.7,��,3.1,��,15.9,76.4,0,0,0,0
2022-06-13T02:05:00+09:00,1.7,��,3.1,��,15.9,76.6,0,0,0,0
2022-06-13T02:06:00+09:00,1.7,��,3.1,��,15.9,76.4,0,0,0,0
2022-06-13T02:07:00+09:00,1.7,��,3.1,��,15.9,76.4,0,0,0,0
2022-06-13T02:08:00+09:00,1.7,��,3.1,��,15.9,76.7,0,0,0,0
2022-06-13T02:09:00+09:00,1.7,��,3.1,��,15.8,76.9,0,0,0,0
2022-06-13T02:10:00+09:00,1.6,��,3.1,��,15.8,77,0,0,0,0
2022-06-13T02:11:00+09:00,1.5,��,3.1,��,15.8,77.3,0,0,0,0
2022-06-13T02:12:00+09:00,1.6,��,3.1,��,15.8,77.4,0,0,0,0
2022-06-13T02:13:00+09:00,1.7,��,3.1,��,15.7,77.5,0,0,0,0
2022-06-13T02:14:00+09:00,1.7,��,3.1,��,15.8,77.7,0,0,0,0
2022-06-13T02:15:00+09:00,1.7,��,2.8,��,15.8,77.7,0,0,0,0
2022-06-13T02:16:00+09:00,1.7,��,2.8,��,15.8,77.8,0,0,0,0
2022-06-13T02:17:00+09:00,1.7,��,2.8,��,15.7,77.9,0,0,0,0
2022-06-13T02:18:00+09:00,1.7,��,2.8,��,15.7,77.9,0,0,0,0
2022-06-13T02:19:00+09:00,1.7,��,2.8,��,15.6,78.1,0,0,0,0
2022-06-13T02:20:00+09:00,1.8,��,2.8,��,15.6,78.3,0,0,0,0
2022-06-13T02:21:00+09:00,1.8,��,2.8,��,15.6,78.4,0,0,0,0
2022-06-13T02:22:00+09:00,1.8,��,2.8,��,15.7,78.5,0,0,0,0
2022-06-13T02:23:00+09:00,1.7,��,2.7,���쓌,15.6,78.5,0,0,0,0
2022-06-13T02:24:00+09:00,1.6,��,2.7,���쓌,15.6,78.5,0,0,0,0
2022-06-13T02:25:00+09:00,1.6,��,2.7,���쓌,15.6,78.6,0,0,0,0
2022-06-13T02:26:00+09:00,1.6,��,2.7,���쓌,15.6,78.8,0,0,0,0
2022-06-13T02:27:00+09:00,1.7,��,2.7,���쓌,15.6,78.9,0,0,0,0
2022-06-13T02:28:00+09:00,1.8,��,2.7,���쓌,15.6,78.8,0,0,0,0
2022-06-13T02:29:00+09:00,1.9,��,3.2,���쓌,15.6,78.8,0,0,0,0
2022-06-13T02:30:00+09:00,1.9,��,3.5,���k��,15.6,78.9,0,0,0,0
2022-06-13T02:31:00+09:00,1.9,��,3.5,���k��,15.6,79,0,0,0,0
2022-06-13T02:32:00+09:00,2,��,3.5,���k��,15.7,78.7,0,0,0,0
2022-06-13T02:33:00+09:00,2.1,��,3.5,���k��,15.7,78.5,0,0,0,0
2022-06-13T02:34:00+09:00,2.1,��,3.5,���k��,15.7,78.2,0,0,0,0
2022-06-13T02:35:00+09:00,2.1,��,3.5,���k��,15.6,78.1,0,0,0,0
2022-06-13T02:36:00+09:00,2.1,��,3.5,���k��,15.5,78.4,0,0,0,0
2022-06-13T02:37:00+09:00,2,��,3.5,���k��,15.5,78.8,0,0,0,0
2022-06-13T02:38:00+09:00,2,��,3.5,���k��,15.4,79.2,0,0,0,0
2022-06-13T02:39:00+09:00,1.9,��,3.5,���k��,15.5,79.6,0,0,0,0
2022-06-13T02:40:00+09:00,1.9,��,3.4,��,15.5,79.9,0,0,0,0
2022-06-13T02:41:00+09:00,1.9,��,3.4,��,15.4,80.1,0,0,0,0
2022-06-13T02:42:00+09:00,1.8,��,3.2,���쓌,15.4,80.2,0,0,0,0
2022-06-13T02:43:00+09:00,1.9,��,3.1,���쓌,15.4,80.4,0,0,0,0
2022-06-13T02:44:00+09:00,1.9,��,3.1,���쓌,15.4,80.5,0,0,0,0
2022-06-13T02:45:00+09:00,2,��,3.3,��,15.4,80.6,0,0,0,0
2022-06-13T02:46:00+09:00,2,��,3.6,���k��,15.4,80.7,0,0,0,0
2022-06-13T02:47:00+09:00,2.1,��,3.6,���k��,15.4,80.6,0,0,0,0
2022-06-13T02:48:00+09:00,2.1,��,4.3,���k��,15.4,80.8,0,0,0,0
2022-06-13T02:49:00+09:00,2.2,��,4.3,���k��,15.4,81,0,0,0,0
2022-06-13T02:50:00+09:00,2.2,��,4.3,���k��,15.4,81.1,0,0,0,0
2022-06-13T02:51:00+09:00,2.3,��,4.3,���k��,15.4,81.2,0,0,0,0
2022-06-13T02:52:00+09:00,2.3,��,4.3,���k��,15.4,81.2,0,0,0,0
2022-06-13T02:53:00+09:00,2.3,��,4.3,���k��,15.5,81.3,0,0,0,0
2022-06-13T02:54:00+09:00,2.3,��,4.3,���k��,15.5,81.1,0,0,0,0
2022-06-13T02:55:00+09:00,2.3,��,4.3,���k��,15.5,80.7,0,0,0,0
2022-06-13T02:56:00+09:00,2.3,��,4.3,���k��,15.5,80.4,0,0,0,0
2022-06-13T02:57:00+09:00,2.3,��,4.3,���k��,15.6,80.2,0,0,0,0
2022-06-13T02:58:00+09:00,2.3,��,3.8,���쓌,15.6,80,0,0,0,0
2022-06-13T02:59:00+09:00,2.3,��,3.8,���쓌,15.7,79.8,0,0,0,0
2022-06-13T03:00:00+09:00,2.2,��,3.8,���쓌,15.7,79.5,0,0,0,0
2022-06-13T03:01:00+09:00,2.3,��,3.8,���쓌,15.8,79.2,0,0,0,0
2022-06-13T03:02:00+09:00,2.3,��,3.9,���쓌,15.8,78.9,0,0,0,0
2022-06-13T03:03:00+09:00,2.3,��,4.4,���쓌,15.8,78.7,0,0,0,0
2022-06-13T03:04:00+09:00,2.4,���쓌,4.4,���쓌,15.8,78.7,0,0,0,0
2022-06-13T03:05:00+09:00,2.4,��,4.4,���쓌,15.9,78.4,0,0,0,0
2022-06-13T03:06:00+09:00,2.4,��,4.4,���쓌,15.9,78.2,0,0,0,0
2022-06-13T03:07:00+09:00,2.3,��,4.4,���쓌,15.9,78,0,0,0,0
2022-06-13T03:08:00+09:00,2.3,��,4.4,���쓌,16,77.7,0,0,0,0
2022-06-13T03:09:00+09:00,2.4,��,4.4,���쓌,16,77.6,0,0,0,0
2022-06-13T03:10:00+09:00,2.5,��,4.4,���쓌,16,77.4,0,0,0,0
2022-06-13T03:11:00+09:00,2.5,��,4.4,���쓌,16,77.3,0,0,0,0
2022-06-13T03:12:00+09:00,2.4,��,4.4,���쓌,16,77.1,0,0,0,0
2022-06-13T03:13:00+09:00,2.3,��,4.2,��,16,77.1,0,0,0,0
2022-06-13T03:14:00+09:00,2.3,��,4.2,��,16,77.2,0,0,0,0
2022-06-13T03:15:00+09:00,2.3,��,4.2,��,16,77.2,0,0,0,0
2022-06-13T03:16:00+09:00,2.3,��,4.2,��,16,77.2,0,0,0,0
2022-06-13T03:17:00+09:00,2.3,��,4.2,��,16,77.4,0,0,0,0
2022-06-13T03:18:00+09:00,2.3,��,4.2,��,16,77.4,0,0,0,0
2022-06-13T03:19:00+09:00,2.1,��,4.2,��,16,77.5,0,0,0,0
2022-06-13T03:20:00+09:00,2,��,3.2,��,16,77.5,0,0,0,0
2022-06-13T03:21:00+09:00,2,��,3.2,��,16,77.6,0,0,0,0
2022-06-13T03:22:00+09:00,1.9,��,3.2,��,16,77.8,0,0,0,0
2022-06-13T03:23:00+09:00,1.9,���쓌,3.2,��,16.1,77.8,0,0,0,0
2022-06-13T03:24:00+09:00,1.8,���쓌,3.2,��,16.1,77.5,0,0,0,0
2022-06-13T03:25:00+09:00,1.7,���쓌,3.2,��,16.1,77.3,0,0,0,0
2022-06-13T03:26:00+09:00,1.6,���쓌,3.2,��,16.1,77.2,0,0,0,0
2022-06-13T03:27:00+09:00,1.5,���쓌,2.9,��,16.1,77.2,0,0,0,0
2022-06-13T03:28:00+09:00,1.4,���쓌,2.8,�쓌,16.1,77.1,0,0,0,0
2022-06-13T03:29:00+09:00,1.3,���쓌,2.8,�쓌,16.1,77.2,0,0,0,0
2022-06-13T03:30:00+09:00,1.2,���쓌,2.8,�쓌,16.1,77.3,0,0,0,0
2022-06-13T03:31:00+09:00,1,���쓌,2.8,�쓌,16.1,77.5,0,0,0,0
2022-06-13T03:32:00+09:00,1,���쓌,2.8,�쓌,16.1,77.4,0,0,0,0
2022-06-13T03:33:00+09:00,1,���쓌,2.1,���k��,16.1,77.3,0,0,0,0
2022-06-13T03:34:00+09:00,1,���쓌,2.1,���k��,16.1,77.2,0,0,0,0
2022-06-13T03:35:00+09:00,1,���쓌,2.2,��,16.1,77.2,0,0,0,0
2022-06-13T03:36:00+09:00,1,���쓌,2.2,��,16.1,77.4,0,0,0,0
2022-06-13T03:37:00+09:00,0.9,���쓌,2.2,��,16.1,77.8,0,0,0,0
2022-06-13T03:38:00+09:00,0.9,���쓌,2.2,��,16.2,77.9,0,0,0,0
2022-06-13T03:39:00+09:00,1,���쓌,2.2,��,16.2,77.6,0,0,0,0
2022-06-13T03:40:00+09:00,1,���쓌,2.2,��,16.2,77.4,0,0,0,0
2022-06-13T03:41:00+09:00,1.1,���쓌,2.2,��,16.2,77.3,0,0,0,0
2022-06-13T03:42:00+09:00,1.1,�쓌,2.2,��,16.2,77.4,0,0,0,0
2022-06-13T03:43:00+09:00,1.1,�쓌,2.2,��,16.1,77.3,0,0,0,0
2022-06-13T03:44:00+09:00,1,�쓌,2.2,��,16.2,77.3,0,0,0,0
2022-06-13T03:45:00+09:00,1,�쓌,2.5,��,16.2,77.3,0,0,0,0
2022-06-13T03:46:00+09:00,1,���쓌,2.5,��,16.2,76.9,0,0,0,0
2022-06-13T03:47:00+09:00,1.1,���쓌,2.5,��,16.2,76.4,0,0,0,0
2022-06-13T03:48:00+09:00,1.1,���쓌,2.5,��,16.2,76.2,0,0,0,0
2022-06-13T03:49:00+09:00,1.1,���쓌,2.7,���쓌,16.2,76.4,0,0,0,0
2022-06-13T03:50:00+09:00,1.3,���쓌,2.9,���쓌,16.2,76.6,0,0,0,0
2022-06-13T03:51:00+09:00,1.4,��,3.1,���k��,16.2,76.6,0,0,0,0
2022-06-13T03:52:00+09:00,1.5,��,3.1,���k��,16.2,76.6,0,0,0,0
2022-06-13T03:53:00+09:00,1.6,��,3.1,���k��,16.2,76.6,0,0,0,0
2022-06-13T03:54:00+09:00,1.8,��,3.1,���k��,16.2,76.5,0,0,0,0
2022-06-13T03:55:00+09:00,1.8,��,3.1,���k��,16.2,76.5,0,0,0,0
2022-06-13T03:56:00+09:00,1.9,��,3.1,���k��,16.2,76.6,0,0,0,0
2022-06-13T03:57:00+09:00,2,��,3.8,���쓌,16.2,76.7,0,0,0,0
2022-06-13T03:58:00+09:00,2,��,3.8,���쓌,16.2,76.7,0,0,0,0
2022-06-13T03:59:00+09:00,2,��,3.8,���쓌,16.2,76.8,0,0,0,0
2022-06-13T04:00:00+09:00,2,��,3.8,���쓌,16.2,76.9,0,0,0,0
2022-06-13T04:01:00+09:00,2,��,3.8,���쓌,16.2,76.9,0,0,0,0
2022-06-13T04:02:00+09:00,1.9,��,3.8,���쓌,16.2,76.8,0,0,0,0
2022-06-13T04:03:00+09:00,1.9,��,3.8,���쓌,16.2,76.7,0,0,0,0
2022-06-13T04:04:00+09:00,1.9,��,3.8,���쓌,16.2,76.8,0,0,0,0
2022-06-13T04:05:00+09:00,2,��,3.8,���쓌,16.2,76.7,0,0,0,0
2022-06-13T04:06:00+09:00,2,��,3.8,���쓌,16.3,76.6,0,0,0,0
2022-06-13T04:07:00+09:00,2,��,3.7,��,16.2,76.5,0,0,0,0
2022-06-13T04:08:00+09:00,2.1,��,3.7,��,16.3,76.7,0,0,0,0
2022-06-13T04:09:00+09:00,2.1,��,3.7,��,16.3,76.9,0,0,0,0
2022-06-13T04:10:00+09:00,2.2,���쓌,3.7,��,16.3,76.7,0,0,0,0
2022-06-13T04:11:00+09:00,2.3,���쓌,3.7,��,16.3,76.6,0,0,0,0
2022-06-13T04:12:00+09:00,2.3,���쓌,3.8,��,16.3,76.4,0,0,0,0
2022-06-13T04:13:00+09:00,2.4,���쓌,3.8,��,16.3,76.2,0,0,0,0
2022-06-13T04:14:00+09:00,2.3,���쓌,4.4,���k��,16.3,76.1,0,0,0,0
2022-06-13T04:15:00+09:00,2.3,��,4.4,���k��,16.3,76.3,0,0,0,0
2022-06-13T04:16:00+09:00,2.3,��,4.4,���k��,16.2,76.4,0,0,0,0
2022-06-13T04:17:00+09:00,2.3,��,4.4,���k��,16.2,76.5,0,0,0,0
2022-06-13T04:18:00+09:00,2.5,��,5.4,��,16.2,76.8,0,0,0,0
2022-06-13T04:19:00+09:00,2.5,��,5.4,��,16.2,76.8,0,0,0,0
2022-06-13T04:20:00+09:00,2.5,��,5.4,��,16.2,76.7,0,0,0,0
2022-06-13T04:21:00+09:00,2.5,��,5.4,��,16.2,76.5,0,0,0,0
2022-06-13T04:22:00+09:00,2.5,��,5.4,��,16.2,76.2,0,0,0,0
2022-06-13T04:23:00+09:00,2.4,��,5.4,��,16.2,76.1,0,0,0,0
2022-06-13T04:24:00+09:00,2.3,��,5.4,��,16.2,76.3,0,0,0,0
2022-06-13T04:25:00+09:00,2.3,��,5.4,��,16.3,76.3,0,0,0,0
2022-06-13T04:26:00+09:00,2.4,��,5.4,��,16.3,76.3,0,0,0,0
2022-06-13T04:27:00+09:00,2.4,��,5.4,��,16.3,76.3,0,0,0,0
2022-06-13T04:28:00+09:00,2.3,��,4.3,���쓌,16.3,76.3,0,0,0,0
2022-06-13T04:29:00+09:00,2.3,��,4.3,���쓌,16.4,76.2,0,0,0,0
2022-06-13T04:30:00+09:00,2.4,��,4.3,���쓌,16.3,75.9,0,0,0,0
2022-06-13T04:31:00+09:00,2.3,��,4.3,���쓌,16.3,75.8,0,0,0,0
2022-06-13T04:32:00+09:00,2.3,��,4.3,���쓌,16.3,75.8,0,0,0,0
2022-06-13T04:33:00+09:00,2.3,��,4.3,���쓌,16.3,76,0,0,0,0
2022-06-13T04:34:00+09:00,2.3,��,4.3,���쓌,16.3,76.3,0,0,0,0
2022-06-13T04:35:00+09:00,2.3,��,4.3,���쓌,16.3,76.4,0,0,0,0
2022-06-13T04:36:00+09:00,2.1,��,3.9,���쓌,16.3,76.5,0,0,0,0
2022-06-13T04:37:00+09:00,2,��,3.9,���쓌,16.3,76.6,0,0,0,0
2022-06-13T04:38:00+09:00,2,��,4.7,���쓌,16.3,76.7,0,0,0,0
2022-06-13T04:39:00+09:00,2,��,4.7,���쓌,16.3,76.7,0,0,0,0
2022-06-13T04:40:00+09:00,2,��,4.7,���쓌,16.3,76.6,0,0,0,0
2022-06-13T04:41:00+09:00,1.9,��,4.7,���쓌,16.3,76.3,0,0,0,0
2022-06-13T04:42:00+09:00,1.9,��,4.7,���쓌,16.3,76.2,0,0,0,0
2022-06-13T04:43:00+09:00,1.9,��,4.7,���쓌,16.3,76.2,0,0,0,0
2022-06-13T04:44:00+09:00,1.9,��,4.7,���쓌,16.3,76.2,0,0,0,0
2022-06-13T04:45:00+09:00,1.9,��,4.7,���쓌,16.3,76.3,0,0,0,0
2022-06-13T04:46:00+09:00,2,��,4.7,���쓌,16.2,76.5,0,0,0,0
2022-06-13T04:47:00+09:00,1.9,��,4.7,���쓌,16.2,76.5,0,0,0,0
2022-06-13T04:48:00+09:00,1.9,��,3.8,�쓌,16.2,76.6,0,0,0,0
2022-06-13T04:49:00+09:00,1.7,��,3.1,���쓌,16.2,76.8,0,0,0,0
2022-06-13T04:50:00+09:00,1.6,��,2.7,���쓌,16.2,76.7,0,0,0,0
2022-06-13T04:51:00+09:00,1.5,��,2.7,���쓌,16.2,76.8,0,0,0,0
2022-06-13T04:52:00+09:00,1.6,��,3,��,16.2,76.8,0,0,0,0
2022-06-13T04:53:00+09:00,1.6,��,3,��,16.2,76.8,0,0,0,0
2022-06-13T04:54:00+09:00,1.7,��,4.4,���k��,16.2,76.9,0,0,0,0
2022-06-13T04:55:00+09:00,1.8,���k��,4.4,���k��,16.2,77,0,0,0,0
2022-06-13T04:56:00+09:00,1.9,��,4.4,���k��,16.2,77.1,0,0,0,0
2022-06-13T04:57:00+09:00,1.9,��,4.4,���k��,16.2,77,0,0,0,0
2022-06-13T04:58:00+09:00,1.9,��,4.4,���k��,16.2,77,0,0,0,0
2022-06-13T04:59:00+09:00,2,��,4.4,���k��,16.2,77,0,0,0,0
2022-06-13T05:00:00+09:00,2.1,���k��,4.4,���k��,16.2,77.1,0,0,0,0
2022-06-13T05:01:00+09:00,2.1,���k��,4.4,���k��,16.1,77.3,0,0,0,0
2022-06-13T05:02:00+09:00,2,���k��,4.4,���k��,16.1,77.5,0,0,0,0
2022-06-13T05:03:00+09:00,2.1,���k��,4.4,���k��,16.1,77.6,0,0,0,0
2022-06-13T05:04:00+09:00,2.1,���k��,4.2,���k��,16.1,77.7,0,0,0,0
2022-06-13T05:05:00+09:00,2.1,���k��,4.2,���k��,16.1,77.8,0,0,0,0
2022-06-13T05:06:00+09:00,2,���k��,4.2,���k��,16.1,77.8,0,0,0,0
2022-06-13T05:07:00+09:00,2,���k��,4.2,���k��,16.1,78,0,0,0,0
2022-06-13T05:08:00+09:00,2.1,���k��,4.2,���k��,16.1,78.1,0,0,0,0
2022-06-13T05:09:00+09:00,2.1,���k��,4.2,���k��,16.1,78.2,0,0,0,0
2022-06-13T05:10:00+09:00,2.1,���k��,4.2,���k��,16.1,78.2,0,0,0,0
2022-06-13T05:11:00+09:00,2.2,���k��,4.2,���k��,16.1,78.2,0,0,0,0
2022-06-13T05:12:00+09:00,2.3,���k��,4.2,���k��,16.1,78.2,0,0,0,0
2022-06-13T05:13:00+09:00,2.2,���k��,4.2,���k��,16.2,78.3,0,0,0,0
2022-06-13T05:14:00+09:00,2.1,���k��,4.2,���k��,16.2,78.2,0,0,0,0
2022-06-13T05:15:00+09:00,2,���k��,3.7,���k��,16.2,78,0,0,0,0
2022-06-13T05:16:00+09:00,2,���k��,3.7,���k��,16.2,78,0,0,0,0
2022-06-13T05:17:00+09:00,2,���k��,3.7,���k��,16.2,78.1,0,0,0,0
2022-06-13T05:18:00+09:00,1.9,���k��,3.7,���k��,16.2,78,0,0,0,0
2022-06-13T05:19:00+09:00,1.8,���k��,3.7,���k��,16.2,78,0,0,0,0
2022-06-13T05:20:00+09:00,1.7,���k��,3.7,���k��,16.2,78,0,0,0,0
2022-06-13T05:21:00+09:00,1.7,���k��,2.9,���k��,16.2,77.8,0,0,0,0
2022-06-13T05:22:00+09:00,1.7,��,3.1,�쓌,16.3,77.8,0,0,0,0
2022-06-13T05:23:00+09:00,1.7,��,3.1,�쓌,16.3,77.8,0,0,0,0
2022-06-13T05:24:00+09:00,1.7,��,3.1,�쓌,16.3,77.9,0,0,0,0
2022-06-13T05:25:00+09:00,1.7,��,3.1,�쓌,16.3,77.9,0,0,0,0
2022-06-13T05:26:00+09:00,1.6,��,3.1,�쓌,16.3,77.7,0,0,0,0
2022-06-13T05:27:00+09:00,1.6,��,3.1,�쓌,16.3,77.6,0,0,0,0
2022-06-13T05:28:00+09:00,1.5,��,3.1,�쓌,16.3,77.5,0,0,0,0
2022-06-13T05:29:00+09:00,1.5,��,3.1,�쓌,16.3,77.7,0,0,0,0
2022-06-13T05:30:00+09:00,1.5,��,3.1,�쓌,16.3,77.7,0,0,0,0
2022-06-13T05:31:00+09:00,1.5,��,3.1,�쓌,16.3,77.4,0,0,0,0
2022-06-13T05:32:00+09:00,1.5,��,3.1,���k��,16.3,77.3,0,0,0,0
2022-06-13T05:33:00+09:00,1.5,��,3.1,���k��,16.3,77.4,0,0,0,0
2022-06-13T05:34:00+09:00,1.5,��,3.1,���k��,16.3,77.5,0,0,0,0
2022-06-13T05:35:00+09:00,1.5,���k��,3.2,���k��,16.3,77.5,0,0,0,0
2022-06-13T05:36:00+09:00,1.7,���k��,3.2,���k��,16.3,77.4,0,0,0,0
2022-06-13T05:37:00+09:00,1.7,���k��,3.2,���k��,16.3,77.6,0,0,0,0
2022-06-13T05:38:00+09:00,1.8,���k��,3.2,���k��,16.2,77.8,0,0,0,0
2022-06-13T05:39:00+09:00,1.9,���k��,3.2,���k��,16.2,78,0,0,0,0
2022-06-13T05:40:00+09:00,1.9,���k��,3.2,���k��,16.3,78.3,0,0,0,0
2022-06-13T05:41:00+09:00,1.9,���k��,3.2,���k��,16.3,78.3,0,0,0,0
2022-06-13T05:42:00+09:00,1.9,���k��,3.6,���쓌,16.3,78.2,0,0,0,0
2022-06-13T05:43:00+09:00,1.9,���k��,3.6,���쓌,16.4,78.1,0,0,0,0
2022-06-13T05:44:00+09:00,1.9,���k��,3.6,���쓌,16.4,77.7,0,0,0,0
2022-06-13T05:45:00+09:00,2,���k��,3.6,���쓌,16.4,77.5,0,0,0,0
2022-06-13T05:46:00+09:00,2,��,3.6,���쓌,16.4,77.5,0,0,0,0
2022-06-13T05:47:00+09:00,2,��,3.6,���쓌,16.4,77.6,0,0,0,0
2022-06-13T05:48:00+09:00,2.1,��,3.6,���쓌,16.4,77.7,0,0,0,0
2022-06-13T05:49:00+09:00,2.1,��,3.6,���쓌,16.4,77.7,0,0,0,0
2022-06-13T05:50:00+09:00,2.1,��,3.6,���쓌,16.4,77.6,0,0,0,0
2022-06-13T05:51:00+09:00,2,��,3.6,���쓌,16.4,77.6,0,0,0,0
2022-06-13T05:52:00+09:00,2,��,2.9,���쓌,16.4,77.7,0,0,0,0
2022-06-13T05:53:00+09:00,2.1,��,2.9,���쓌,16.4,77.8,0,0,0,0
2022-06-13T05:54:00+09:00,2.1,��,3.4,���쓌,16.4,77.9,0,0,0,0
2022-06-13T05:55:00+09:00,2.1,��,3.7,���k��,16.4,77.8,0,0,0,0
2022-06-13T05:56:00+09:00,2.2,��,4.8,���k��,16.4,77.6,0,0,0,0
2022-06-13T05:57:00+09:00,2.3,��,4.8,���k��,16.5,77.5,0,0,0,0
2022-06-13T05:58:00+09:00,2.3,��,4.8,���k��,16.5,77.3,0,0,0,0
2022-06-13T05:59:00+09:00,2.4,��,4.8,���k��,16.5,77.2,0,0,0,0
2022-06-13T06:00:00+09:00,2.5,��,4.8,���k��,16.5,77.1,0,0,0,0
2022-06-13T06:01:00+09:00,2.6,��,4.8,���k��,16.5,77.1,0,0,0,0
2022-06-13T06:02:00+09:00,2.6,��,4.8,���k��,16.5,77.1,0,0,0,0
2022-06-13T06:03:00+09:00,2.6,��,4.8,���k��,16.5,77.3,0,0,0,0
2022-06-13T06:04:00+09:00,2.6,��,4.8,���k��,16.5,77.3,0,0,0,0
2022-06-13T06:05:00+09:00,2.6,��,4.8,���k��,16.5,77.3,0,0,0,0
2022-06-13T06:06:00+09:00,2.5,��,4.6,���k��,16.5,77.1,0,0,0,0
2022-06-13T06:07:00+09:00,2.5,��,4.4,���k��,16.6,76.9,0,0,0,0
2022-06-13T06:08:00+09:00,2.5,��,4.4,���k��,16.6,76.9,0,0,0,0
2022-06-13T06:09:00+09:00,2.4,��,4.1,�k��,16.6,77,0,0,0,0
2022-06-13T06:10:00+09:00,2.4,��,4.4,���k��,16.6,76.9,0,0,0,0
2022-06-13T06:11:00+09:00,2.3,��,4.4,���k��,16.6,76.9,0,0,0,0
2022-06-13T06:12:00+09:00,2.3,��,4.4,���k��,16.6,76.8,0,0,0,0
2022-06-13T06:13:00+09:00,2.2,��,4.4,���k��,16.6,76.9,0,0,0,0
2022-06-13T06:14:00+09:00,2.2,��,4.4,���k��,16.6,77,0,0,0,0
2022-06-13T06:15:00+09:00,2.1,��,4.4,���k��,16.6,77,0,0,0,0
2022-06-13T06:16:00+09:00,2.1,��,4.4,���k��,16.6,77,0,0,0,0
2022-06-13T06:17:00+09:00,2.1,��,4.4,���k��,16.7,76.9,0,0,0,0
2022-06-13T06:18:00+09:00,2.2,��,4.4,���k��,16.7,76.8,0,0,0,0
2022-06-13T06:19:00+09:00,2.2,��,4.4,���k��,16.7,76.8,0,0,0,0
2022-06-13T06:20:00+09:00,2.1,��,4.2,���k��,16.7,76.7,0,0,0,0
2022-06-13T06:21:00+09:00,2.1,��,4.2,���k��,16.7,76.9,0,0,0,0
2022-06-13T06:22:00+09:00,2.1,��,4.2,���k��,16.7,77.1,0,0,0,0
2022-06-13T06:23:00+09:00,2.2,��,4.2,���k��,16.7,77.2,0,0,0,0
2022-06-13T06:24:00+09:00,2.2,��,4.2,���k��,16.7,77.2,0,0,0,0
2022-06-13T06:25:00+09:00,2.2,��,4.2,���k��,16.7,77.2,0,0,0,0
2022-06-13T06:26:00+09:00,2.2,��,4.2,���k��,16.7,77.2,0,0,0,0
2022-06-13T06:27:00+09:00,2.1,��,3.7,���k��,16.8,77.1,0,0,0,0
2022-06-13T06:28:00+09:00,2.1,��,3.8,���쓌,16.8,76.8,0,0,0,0
2022-06-13T06:29:00+09:00,2.2,��,3.8,���쓌,16.8,76.6,0,0,0,0
2022-06-13T06:30:00+09:00,2.2,��,3.8,���쓌,16.8,76.4,0,0,0,0
2022-06-13T06:31:00+09:00,2.3,��,4.7,���k��,16.8,76.4,0,0,0,0
2022-06-13T06:32:00+09:00,2.4,��,4.7,���k��,16.8,76.2,0,0,0,0
2022-06-13T06:33:00+09:00,2.5,��,4.7,���k��,16.9,76.3,0,0,0,0
2022-06-13T06:34:00+09:00,2.6,��,4.7,���k��,16.9,76.1,0,0,0,0
2022-06-13T06:35:00+09:00,2.6,��,4.7,���k��,16.9,76.2,0,0,0,0
2022-06-13T06:36:00+09:00,2.6,��,4.7,���k��,16.9,76.2,0,0,0,0